When you browse on this site, cookies collect data to enhance your experience and personalize the content and advertising you see.
Visit our Privacy Policy to learn more. By continuing to use the site, you agree to this use of cookies and data.
  • în România
  • Lista ţărilor
  • Pe 7 zile
  • Temperatura apei
  • Hartă satelitară
  • Meteo pe hartă
  • Widget-uri
  • user-avatar
    Intrare

    Meteo pe oră la Les Ulis

    Astăzi, 23 Aprilie, Marţi

    Timp Temperatura Precipitaţii Vânt Presiune Umiditate
    00:00 +16°C° 0 mm 1 m/s 736 mmHg 70%
    01:00 +16°C° 0 mm 1 m/s 735 mmHg 72%
    02:00 +15°C° 0 mm 1 m/s 735 mmHg 75%
    03:00 +14°C° 0 mm 0 m/s 735 mmHg 77%
    04:00 +14°C° 0 mm 0 m/s 735 mmHg 77%
    05:00 +14°C° 0 mm 0 m/s 735 mmHg 77%
    06:00 +14°C° 0 mm 0 m/s 735 mmHg 76%
    07:00 +16°C° 0 mm 1 m/s 735 mmHg 71%
    08:00 +18°C° 0 mm 1 m/s 735 mmHg 65%
    09:00 +20°C° 0 mm 1 m/s 735 mmHg 60%
    10:00 +21°C° 0 mm 1 m/s 735 mmHg 56%
    11:00 +22°C° 0 mm 1 m/s 734 mmHg 52%
    12:00 +24°C° 0 mm 1 m/s 734 mmHg 48%
    13:00 +24°C° 0 mm 1 m/s 734 mmHg 48%
    14:00 +24°C° 0 mm 1 m/s 733 mmHg 47%
    15:00 +23°C° 0 mm 1 m/s 733 mmHg 47%
    16:00 +23°C° 0 mm 1 m/s 733 mmHg 52%
    17:00 +21°C° 0 mm 2 m/s 733 mmHg 56%
    18:00 +20°C° 0 mm 2 m/s 732 mmHg 61%
    19:00 +19°C° 0 mm 2 m/s 732 mmHg 65%
    20:00 +18°C° 0 mm 2 m/s 733 mmHg 68%
    21:00 +17°C° 0 mm 2 m/s 733 mmHg 72%
    22:00 +17°C° 0 mm 3 m/s 733 mmHg 74%
    23:00 +15°C° 0 mm 4 m/s 733 mmHg 75%

    Mâine, 24 Aprilie, Miercuri

    Timp Temperatura Precipitaţii Vânt Presiune Umiditate
    00:00 +14°C° 0 mm 4 m/s 733 mmHg 77%
    01:00 +14°C° 0 mm 4 m/s 733 mmHg 80%
    02:00 +13°C° 0 mm 4 m/s 733 mmHg 84%
    03:00 +13°C° 0 mm 4 m/s 733 mmHg 88%
    04:00 +12°C° 0 mm 5 m/s 734 mmHg 86%
    05:00 +12°C° 0 mm 5 m/s 734 mmHg 85%
    06:00 +12°C° 0 mm 5 m/s 735 mmHg 83%
    07:00 +12°C° 0.2 mm 5 m/s 736 mmHg 81%
    08:00 +12°C° 0.2 mm 5 m/s 736 mmHg 80%
    09:00 +12°C° 0.2 mm 5 m/s 737 mmHg 78%
    10:00 +12°C° 0.4 mm 4 m/s 737 mmHg 77%
    11:00 +12°C° 0.4 mm 4 m/s 737 mmHg 76%
    12:00 +12°C° 0.4 mm 4 m/s 737 mmHg 75%
    13:00 +13°C° 0.5 mm 5 m/s 737 mmHg 70%
    14:00 +14°C° 0.5 mm 5 m/s 737 mmHg 65%
    15:00 +15°C° 0.5 mm 6 m/s 737 mmHg 60%
    16:00 +14°C° 0.2 mm 6 m/s 737 mmHg 62%
    17:00 +14°C° 0.2 mm 6 m/s 737 mmHg 65%
    18:00 +13°C° 0.2 mm 5 m/s 737 mmHg 67%
    19:00 +12°C° 0 mm 5 m/s 737 mmHg 69%
    20:00 +12°C° 0 mm 5 m/s 737 mmHg 70%
    21:00 +11°C° 0 mm 4 m/s 738 mmHg 72%
    22:00 +12°C° 0 mm 5 m/s 737 mmHg 69%
    23:00 +12°C° 0 mm 5 m/s 737 mmHg 66%

    Poimâine, 25 Aprilie, Joi

    Timp Temperatura Precipitaţii Vânt Presiune Umiditate
    00:00 +12°C° 0 mm 5 m/s 737 mmHg 63%
    01:00 +12°C° 0.4 mm 5 m/s 737 mmHg 68%
    02:00 +10°C° 0.4 mm 6 m/s 736 mmHg 73%
    03:00 +9°C° 0.4 mm 6 m/s 736 mmHg 78%
    04:00 +9°C° 0.2 mm 7 m/s 736 mmHg 79%
    05:00 +9°C° 0.2 mm 8 m/s 736 mmHg 80%
    06:00 +10°C° 0.2 mm 9 m/s 737 mmHg 81%
    07:00 +10°C° 0 mm 9 m/s 738 mmHg 76%
    08:00 +11°C° 0 mm 9 m/s 739 mmHg 70%
    09:00 +12°C° 0 mm 8 m/s 739 mmHg 64%
    10:00 +12°C° 0.1 mm 8 m/s 740 mmHg 61%
    11:00 +12°C° 0.1 mm 8 m/s 740 mmHg 58%
    12:00 +14°C° 0.1 mm 7 m/s 741 mmHg 55%
    13:00 +12°C° 0.2 mm 7 m/s 741 mmHg 57%
    14:00 +12°C° 0.2 mm 7 m/s 742 mmHg 59%
    15:00 +11°C° 0.2 mm 6 m/s 742 mmHg 62%
    16:00 +11°C° 0.1 mm 6 m/s 742 mmHg 65%
    17:00 +10°C° 0.1 mm 6 m/s 743 mmHg 68%
    18:00 +9°C° 0.1 mm 6 m/s 743 mmHg 72%
    19:00 +9°C° 0 mm 5 m/s 744 mmHg 74%
    20:00 +8°C° 0 mm 5 m/s 744 mmHg 77%
    21:00 +8°C° 0 mm 5 m/s 745 mmHg 79%
    22:00 +8°C° 0 mm 5 m/s 745 mmHg 80%
    23:00 +8°C° 0 mm 5 m/s 745 mmHg 80%

    26 Aprilie, Vineri

    Timp Temperatura Precipitaţii Vânt Presiune Umiditate
    00:00 +7°C° 0 mm 5 m/s 745 mmHg 80%
    01:00 +7°C° 0 mm 5 m/s 745 mmHg 80%
    02:00 +7°C° 0 mm 5 m/s 745 mmHg 80%
    03:00 +7°C° 0 mm 5 m/s 745 mmHg 80%
    04:00 +7°C° 0 mm 6 m/s 745 mmHg 79%
    05:00 +7°C° 0 mm 6 m/s 745 mmHg 78%
    06:00 +7°C° 0 mm 6 m/s 745 mmHg 77%
    07:00 +8°C° 0 mm 6 m/s 746 mmHg 75%
    08:00 +9°C° 0 mm 6 m/s 746 mmHg 72%
    09:00 +11°C° 0 mm 6 m/s 746 mmHg 69%
    10:00 +12°C° 0.2 mm 7 m/s 746 mmHg 66%
    11:00 +14°C° 0.2 mm 7 m/s 746 mmHg 63%
    12:00 +15°C° 0.2 mm 8 m/s 746 mmHg 60%
    13:00 +14°C° 0.5 mm 7 m/s 747 mmHg 64%
    14:00 +14°C° 0.5 mm 7 m/s 747 mmHg 68%
    15:00 +14°C° 0.5 mm 7 m/s 747 mmHg 71%
    16:00 +12°C° 0.6 mm 7 m/s 747 mmHg 72%
    17:00 +13°C° 0.6 mm 6 m/s 748 mmHg 73%
    18:00 +11°C° 0.6 mm 6 m/s 748 mmHg 74%
    19:00 +10°C° 0.1 mm 5 m/s 749 mmHg 76%
    20:00 +9°C° 0.1 mm 5 m/s 750 mmHg 78%
    21:00 +7°C° 0.1 mm 5 m/s 751 mmHg 80%
    22:00 +7°C° 0 mm 5 m/s 752 mmHg 79%
    23:00 +6°C° 0 mm 4 m/s 752 mmHg 77%

    27 Aprilie, Sâmbătă

    Timp Temperatura Precipitaţii Vânt Presiune Umiditate
    00:00 +5°C° 0 mm 4 m/s 753 mmHg 76%
    01:00 +5°C° 0 mm 4 m/s 753 mmHg 78%
    02:00 +5°C° 0 mm 4 m/s 753 mmHg 79%
    03:00 +4°C° 0 mm 4 m/s 753 mmHg 80%
    04:00 +5°C° 0.1 mm 5 m/s 753 mmHg 81%
    05:00 +5°C° 0.1 mm 5 m/s 753 mmHg 81%
    06:00 +5°C° 0.1 mm 6 m/s 752 mmHg 82%
    07:00 +7°C° 0.1 mm 6 m/s 752 mmHg 82%
    08:00 +6°C° 0.1 mm 7 m/s 752 mmHg 83%
    09:00 +8°C° 0.1 mm 7 m/s 752 mmHg 83%
    10:00 +9°C° 0.3 mm 7 m/s 752 mmHg 78%
    11:00 +11°C° 0.3 mm 8 m/s 752 mmHg 72%
    12:00 +12°C° 0.3 mm 8 m/s 752 mmHg 67%
    13:00 +12°C° 0 mm 8 m/s 752 mmHg 60%
    14:00 +12°C° 0 mm 8 m/s 752 mmHg 54%
    15:00 +12°C° 0 mm 9 m/s 752 mmHg 47%
    16:00 +11°C° 0 mm 8 m/s 753 mmHg 52%
    17:00 +10°C° 0 mm 7 m/s 753 mmHg 57%
    18:00 +9°C° 0 mm 6 m/s 754 mmHg 61%
    19:00 +8°C° 0 mm 5 m/s 755 mmHg 65%
    20:00 +7°C° 0 mm 5 m/s 756 mmHg 69%
    21:00 +6°C° 0 mm 4 m/s 756 mmHg 73%
    22:00 +6°C° 0 mm 4 m/s 757 mmHg 77%
    23:00 +6°C° 0 mm 4 m/s 757 mmHg 80%

    28 Aprilie, Duminică

    Timp Temperatura Precipitaţii Vânt Presiune Umiditate
    00:00 +5°C° 0 mm 3 m/s 757 mmHg 83%
    01:00 +5°C° 0 mm 3 m/s 757 mmHg 85%
    02:00 +5°C° 0 mm 3 m/s 758 mmHg 86%
    03:00 +6°C° 0 mm 2 m/s 758 mmHg 88%
    04:00 +6°C° 0 mm 2 m/s 758 mmHg 85%
    05:00 +7°C° 0 mm 2 m/s 758 mmHg 83%
    06:00 +7°C° 0 mm 2 m/s 758 mmHg 81%
    07:00 +8°C° 0 mm 2 m/s 758 mmHg 77%
    08:00 +9°C° 0 mm 2 m/s 758 mmHg 73%
    09:00 +10°C° 0 mm 2 m/s 758 mmHg 70%
    10:00 +10°C° 0 mm 2 m/s 758 mmHg 67%
    11:00 +12°C° 0 mm 2 m/s 757 mmHg 65%
    12:00 +12°C° 0 mm 2 m/s 757 mmHg 62%
    13:00 +13°C° 0 mm 1 m/s 757 mmHg 61%
    14:00 +13°C° 0 mm 1 m/s 756 mmHg 60%
    15:00 +14°C° 0 mm 1 m/s 756 mmHg 58%
    16:00 +14°C° 0 mm 1 m/s 756 mmHg 62%
    17:00 +14°C° 0 mm 1 m/s 756 mmHg 65%
    18:00 +13°C° 0 mm 0 m/s 755 mmHg 69%
    19:00 +12°C° 0 mm 0 m/s 755 mmHg 73%
    20:00 +11°C° 0 mm 1 m/s 755 mmHg 76%
    21:00 +10°C° 0 mm 1 m/s 755 mmHg 80%
    22:00 +10°C° 0 mm 1 m/s 755 mmHg 82%
    23:00 +10°C° 0 mm 1 m/s 754 mmHg 83%
    Arată mai mult